Startseite
Über Mich
AHP4
Galerie
Sehschlangen
Tourenbuch
Bookmarks
Elektronik
Bewertung
Geschichten
[Tagesmessung] [Jahreswerte] [Information]

Messwerte vom 13.03.2022

Die letzten Messwerte von 23:58:47 Uhr:
KategorieMesswert
Temperatur [°C]2
Luftdruck [mBar]1003
Sonneneinstrahlung0
Wind [km/h]0 aus Ost
Niederschlag [l/m²]0
rel.Luftfeucht.40.6%
CO2 [ppm]762

Diagramme
Messwerte vom 13.03.2022
Tagesaggregation
KategorieMinimumMaximumSchnittSumme
Temperatur [°C]-2165.4521
Luftdruck [mBar]100210051002.7938
Sonneneinstrahlung24798.8479
Wind [km/h]14
rF [%]20.657.638.19
Niederschlag [l/m²]0
CO2 [ppm]401816567.8
Einordnung alsFrosttag
Vegetationstag

Messungen an benachbarten Tagen: Zur Jahresaggregation 2022
Tabelle aller Messwerte
UhrzeitTemperatur [°C]Luftdruck [mBar]SonneWind [km/h]RichtungRegen [l/m²]rF [%]CO2 [ppm]
00:01:47 1 1005 0 0 S 0 46.5 630
00:04:49 1 1005 0 0 NO 0 46.8 635
00:07:49 1 1005 0 0 O 0 47.2 626
00:10:47 1 1005 0 1 NO 0 47.3 622
00:13:48 1 1005 0 2 SO 0 47.4 618
00:16:46 1 1004 0 2 NO 0 47.6 623
00:19:46 0 1004 0 0 0 47.8 633
00:22:48 0 1004 0 0 NW 0 48.1 641
00:25:46 0 1005 0 1 O 0 48.2 641
00:28:47 0 1004 0 0 SO 0 48.5 644
00:31:45 0 1004 0 0 N 0 48.5 644
00:34:45 0 1004 0 2 N 0 49 647
00:37:45 0 1004 0 1 W 0 49.4 641
00:40:47 0 1005 0 1 SW 0 49.7 638
00:43:45 0 1004 0 2 N 0 49.4 632
00:46:46 0 1005 0 1 N 0 49.3 643
00:49:46 0 1004 0 0 NO 0 49.3 644
00:52:46 0 1005 0 0 NW 0 49 644
00:55:48 0 1005 0 1 NO 0 49 642
00:58:45 0 1004 0 0 N 0 49.1 642
01:01:48 0 1004 0 1 NO 0 49.3 642
01:04:46 0 1005 0 1 O 0 49.6 645
01:07:45 0 1004 0 0 NO 0 50.1 641
01:10:45 0 1004 0 1 SO 0 49.4 644
01:13:45 0 1004 0 0 O 0 49.4 644
01:16:45 0 1004 0 0 NO 0 49.4 649
01:19:51 0 1004 0 0 NW 0 49.6 652
01:22:45 -1 1004 0 0 N 0 49.8 644
01:25:49 -1 1005 0 0 NW 0 50.1 641
01:28:47 -1 1004 0 0 NW 0 50.7 644
01:31:46 -1 1004 0 0 NO 0 51.2 644
01:34:45 -1 1005 0 0 N 0 51.4 641
01:37:46 -1 1004 0 0 NO 0 51.4 647
01:40:45 -1 1004 0 0 NO 0 51.3 641
01:43:46 -1 1004 0 0 NO 0 51.5 635
01:46:44 -1 1004 0 0 W 0 51.4 635
01:49:47 -1 1004 0 0 NO 0 51.3 635
01:52:45 -1 1003 0 0 O 0 51.7 638
01:55:48 -1 1003 0 0 O 0 51.8 635
01:58:44 -1 1004 0 0 N 0 51.8 635
02:01:48 -1 1004 0 1 SO 0 52 639
02:04:46 -1 1003 0 0 N 0 52.4 641
02:07:49 -1 1003 0 0 NO 0 52.6 635
02:10:47 -1 1004 0 1 NO 0 52.6 633
02:13:47 -1 1003 0 1 NW 0 52.7 644
02:16:46 -1 1004 0 0 N 0 52.7 645
02:19:47 -1 1004 0 0 NO 0 52.7 647
02:22:47 -1 1004 0 1 O 0 53 641
02:25:47 -1 1003 0 1 O 0 53.1 638
02:28:49 -1 1003 0 1 NO 0 53.1 633
02:31:48 -1 1002 0 0 NW 0 53.1 635
02:34:48 -1 1003 0 1 NO 0 52.9 636
02:37:48 -1 1004 0 0 O 0 52.8 641
02:40:48 -1 1003 0 0 SO 0 52.7 645
02:43:46 -1 1003 0 1 O 0 52.6 647
02:46:46 -1 1003 0 0 O 0 52.4 641
02:49:47 -1 1003 0 3 SW 0 52.4 638
02:52:48 -1 1003 0 1 NW 0 52.2 631
02:55:45 -1 1003 0 0 NO 0 52.7 630
02:58:47 -1 1003 0 0 NO 0 52.6 631
03:01:48 -1 1003 0 0 NO 0 52.5 636
03:04:46 -1 1003 0 2 O 0 52.5 635
03:07:49 -1 1003 0 1 NW 0 52.5 639
03:10:48 -1 1002 0 1 SW 0 52.3 637
03:13:48 -1 1003 0 1 N 0 52.3 638
03:16:47 -1 1003 0 0 N 0 52.3 633
03:19:47 -1 1003 0 0 O 0 52.2 632
03:22:49 -1 1003 0 0 SO 0 51.6 626
03:25:46 -1 1003 0 0 NO 0 51.5 632
03:28:46 -1 1003 0 0 NO 0 51.5 633
03:31:46 -1 1003 0 1 NW 0 51.4 630
03:34:46 -1 1003 0 1 N 0 51.4 629
03:37:49 -1 1003 0 0 NO 0 51.5 630
03:40:45 -1 1003 0 0 S 0 51.5 630
03:43:46 -1 1003 0 0 S 0 51.8 627
03:46:44 -1 1003 0 1 O 0 51.8 629
03:49:47 -2 1003 0 0 NO 0 51.8 630
03:52:47 -2 1003 0 0 NO 0 52.3 620
03:55:45 -2 1002 0 1 O 0 52.3 627
03:58:47 -2 1003 0 0 SO 0 52.5 633
04:01:48 -2 1003 0 1 S 0 52.2 638
04:04:44 -2 1003 0 3 O 0 52.2 630
04:07:45 -2 1003 0 1 S 0 52.9 635
04:10:45 -2 1003 0 0 O 0 53.5 641
04:13:47 -2 1003 0 0 NO 0 54.2 641
04:16:45 -2 1002 0 0 O 0 54.4 641
04:19:46 -2 1003 0 0 O 0 54.6 632
04:22:45 -2 1003 0 0 SO 0 54.4 626
04:25:47 -2 1003 0 0 NO 0 54.5 623
04:28:47 -2 1003 0 0 NW 0 54.3 621
04:31:45 -2 1002 0 0 NO 0 54.2 627
04:34:46 -2 1003 0 0 O 0 54.2 629
04:37:45 -2 1002 0 1 O 0 54 629
04:40:47 -2 1002 0 0 SO 0 53.8 631
04:43:47 -2 1003 0 1 S 0 53.6 633
04:46:48 -2 1003 0 0 SO 0 54.5 638
04:49:45 -2 1002 0 1 O 0 55.3 635
04:52:48 -2 1002 0 0 SW 0 56 629
04:55:46 -2 1002 0 0 N 0 57 627
04:58:47 -2 1002 0 1 NO 0 57.6 630
05:01:51 -2 1003 0 0 SO 0 57.3 635
05:04:46 -2 1003 0 0 SO 0 56.9 630
05:07:46 -2 1003 0 1 SO 0 56.7 627
05:10:44 -2 1003 0 0 O 0 56.1 633
05:13:50 -1 1002 0 3 SW 0 54.8 637
05:16:47 -1 1003 0 0 NW 0 54.7 635
05:19:45 -1 1002 0 0 W 0 54.2 634
05:22:47 -1 1002 0 1 S 0 54.2 632
05:25:47 -1 1003 0 0 SW 0 54.3 630
05:28:45 -1 1003 0 0 N 0 54.3 630
05:31:46 -1 1003 0 1 O 0 54.2 620
05:34:47 -1 1003 0 1 O 0 54 633
05:37:46 -1 1003 0 1 O 0 53.9 629
05:40:49 -1 1003 0 1 W 0 54 627
05:43:47 -1 1003 0 3 NO 0 54 626
05:46:46 -2 1003 0 3 SO 0 54 624
05:49:46 -2 1003 0 0 SO 0 54 624
05:52:51 -2 1003 0 0 NO 0 53.9 626
05:55:47 -2 1002 0 1 NO 0 54.1 632
05:58:49 -2 1003 0 0 SO 0 54.1 629
06:01:47 -1 1002 0 0 W 0 54.2 635
06:04:48 -1 1003 0 0 NO 0 53.6 629
06:07:48 -1 1003 0 0 W 0 53.4 629
06:10:49 -1 1002 0 0 SO 0 53.3 629
06:13:47 -1 1003 4 0 SO 0 53.3 625
06:16:44 -1 1003 8 3 N 0 53.2 629
06:19:46 -2 1002 13 0 0 53.8 621
06:22:47 -2 1003 20 2 O 0 54 621
06:25:48 -2 1002 30 1 N 0 54 624
06:28:48 -2 1003 42 2 O 0 53.9 621
06:31:48 -2 1003 55 2 O 0 53.8 615
06:34:49 -2 1003 69 1 N 0 53.8 615
06:37:50 -2 1003 82 2 NW 0 53.8 615
06:40:47 -2 1003 95 2 S 0 54 612
06:43:50 -2 1003 106 1 NO 0 54.3 609
06:46:47 -2 1003 117 3 SO 0 54.4 601
06:49:48 -2 1002 126 2 NO 0 54.6 597
06:52:48 -2 1003 134 5 SO 0 54.6 597
06:55:48 -2 1003 140 1 SO 0 54.5 600
06:58:45 -2 1003 146 0 O 0 54.5 605
07:01:48 -2 1003 151 0 S 0 54.4 604
07:04:48 -2 1003 155 2 N 0 54.4 609
07:07:48 -2 1003 159 3 SW 0 54.4 609
07:10:46 -2 1003 162 1 S 0 54.6 609
07:13:47 -2 1003 165 1 N 0 54.8 606
07:16:47 -2 1003 167 0 SO 0 54.7 613
07:19:48 -2 1003 170 1 W 0 54.6 609
07:22:45 -2 1003 172 1 SO 0 54.4 614
07:25:47 -1 1003 173 2 SO 0 54.3 618
07:28:46 -1 1003 175 0 NO 0 54.4 620
07:31:47 -1 1003 176 2 O 0 54.3 609
07:34:47 -1 1003 177 1 S 0 54.4 620
07:37:47 -1 1003 179 0 SW 0 54.5 623
07:40:48 -1 1003 179 0 NO 0 54.3 615
07:43:50 -1 1003 180 1 O 0 54.2 609
07:46:50 -1 1003 181 1 O 0 53.9 612
07:49:47 -1 1003 182 1 N 0 53.7 621
07:52:50 -1 1003 182 2 SW 0 53.6 621
07:55:48 -1 1003 182 1 SO 0 53.2 621
07:58:47 -1 1003 183 0 N 0 53 626
08:01:49 0 1003 183 2 NO 0 52.5 630
08:04:49 0 1003 184 0 SO 0 52.2 629
08:07:48 0 1003 184 1 SO 0 51.9 626
08:10:48 0 1003 185 1 NO 0 51.9 632
08:13:46 0 1003 185 0 O 0 51.6 646
08:16:49 0 1004 185 0 SW 0 51.2 658
08:19:49 0 1003 185 2 NO 0 51 667
08:22:47 1 1003 186 0 S 0 49.6 677
08:25:51 0 1003 186 1 NW 0 50.3 689
08:28:49 1 1004 187 0 N 0 49.5 682
08:31:45 1 1003 187 0 O 0 49.7 673
08:34:49 1 1004 187 0 N 0 49.5 673
08:37:47 1 1003 187 0 SO 0 49.2 673
08:40:50 1 1003 188 5 NO 0 48.8 676
08:43:48 1 1003 188 2 SO 0 48.7 670
08:46:47 1 1003 188 1 SO 0 48.5 670
08:49:48 1 1003 188 0 N 0 48.2 673
08:52:47 2 1003 188 3 0 48.3 680
08:55:47 2 1003 189 3 N 0 48.1 677
08:58:49 2 1004 189 2 NO 0 48.1 673
09:01:49 2 1003 189 1 NO 0 47.6 672
09:04:48 2 1003 189 0 SO 0 46.9 668
09:07:52 2 1003 190 1 SO 0 46.9 671
09:10:48 2 1002 190 3 W 0 46.7 673
09:13:47 3 1003 190 1 SO 0 46.3 679
09:16:47 3 1004 190 0 S 0 45.2 680
09:19:46 3 1003 190 5 S 0 44.9 679
09:22:46 3 1002 190 6 S 0 43.6 679
09:25:46 3 1003 190 4 N 0 42.8 687
09:28:47 3 1003 191 4 NW 0 42.4 685
09:31:46 4 1003 191 6 W 0 42.3 685
09:34:48 4 1003 191 5 NO 0 41.9 682
09:37:47 4 1003 192 4 SO 0 41.5 688
09:40:48 4 1004 192 2 N 0 40.8 694
09:43:49 4 1004 193 2 NO 0 40.8 695
09:46:50 4 1002 194 5 NW 0 40.7 664
09:49:49 4 1003 194 6 S 0 40.4 700
09:52:45 4 1003 196 4 0 40.2 702
09:55:49 4 1003 197 4 O 0 40.3 698
09:58:46 4 1003 198 1 O 0 39.8 701
10:01:49 5 1003 199 2 N 0 39.9 700
10:04:46 5 1003 199 5 N 0 39.6 694
10:07:49 5 1003 200 2 SO 0 38.7 694
10:10:52 5 1002 201 2 NO 0 38.6 697
10:13:47 5 1003 201 4 O 0 38.2 702
10:16:48 5 1004 201 4 NO 0 38.1 705
10:19:48 5 1003 201 3 SO 0 37.9 710
10:22:49 5 1003 202 5 W 0 37.9 705
10:25:48 5 1003 202 5 SO 0 37.8 694
10:28:48 5 1003 202 12 S 0 37.4 697
10:31:50 6 1004 202 8 S 0 37 706
10:34:46 6 1003 202 7 S 0 36.9 710
10:37:49 6 1003 202 3 N 0 35.9 714
10:40:48 6 1003 202 3 SO 0 35.9 712
10:43:47 6 1004 202 8 NO 0 35.2 719
10:46:49 6 1004 203 3 SO 0 35.2 713
10:49:46 6 1003 203 6 W 0 34.6 711
10:52:48 7 1003 203 4 NO 0 34.3 703
10:55:48 7 1003 203 1 N 0 34.6 708
10:58:47 7 1003 203 3 N 0 35.8 709
11:01:48 7 1003 203 3 NW 0 34.8 720
11:04:48 7 1003 203 4 N 0 34.5 720
11:07:50 7 1003 204 6 SW 0 34.7 721
11:10:49 7 1003 203 5 S 0 33.4 715
11:13:46 7 1003 204 4 SO 0 33.1 709
11:16:47 7 1003 204 3 S 0 32.6 717
11:19:48 8 1003 204 5 SO 0 32.7 723
11:22:47 8 1002 204 2 O 0 32.5 722
11:25:49 8 1003 205 7 SO 0 31.8 726
11:28:50 8 1002 205 3 NW 0 32.5 723
11:31:47 8 1003 205 5 O 0 32 718
11:34:49 9 1002 205 5 NO 0 31.3 805
11:37:49 9 1003 206 4 SW 0 31.4 806
11:40:47 10 1003 206 4 NO 0 31 816
11:43:49 11 1003 206 4 SO 0 29.2 796
11:46:46 11 1003 207 5 S 0 28.3 746
11:49:48 12 1003 207 5 SW 0 27.2 674
11:52:49 12 1003 207 2 SO 0 27 629
11:55:50 13 1002 208 9 O 0 26.8 612
11:58:48 13 1003 209 3 SO 0 25.6 565
12:01:49 14 1003 209 9 SO 0 25 538
12:04:49 14 1003 209 1 NO 0 23.9 533
12:07:47 14 1003 209 3 0 24.2 530
12:10:47 14 1003 210 6 O 0 24 516
12:13:50 13 1003 210 3 NW 0 23.5 495
12:16:46 13 1003 210 4 N 0 22.9 489
12:19:49 13 1003 211 6 SO 0 23 483
12:22:48 13 1003 212 4 SO 0 23.6 471
12:25:50 13 1003 212 5 SO 0 22.7 460
12:28:49 13 1002 212 4 N 0 22.8 446
12:31:47 13 1003 212 6 O 0 23 436
12:34:47 13 1002 213 5 O 0 22.9 430
12:37:47 13 1003 213 6 N 0 22.8 424
12:40:47 13 1003 213 4 O 0 22.9 415
12:43:48 14 1003 214 9 S 0 21.5 406
12:46:47 14 1003 216 3 S 0 21.4 404
12:49:50 14 1002 218 6 SO 0 21.3 407
12:52:48 14 1003 220 7 S 0 21.2 407
12:55:48 15 1002 222 7 SO 0 22 404
12:58:50 15 1002 224 6 SW 0 21.6 404
13:01:47 15 1002 225 2 S 0 20.6 407
13:04:49 15 1002 225 4 N 0 21.6 404
13:07:49 14 1003 214 8 SO 0 22.4 407
13:10:49 15 1003 213 8 SO 0 22.7 407
13:13:48 15 1002 199 9 O 0 22.3 404
13:16:47 15 1002 198 7 S 0 22.5 407
13:19:49 15 1002 200 3 NO 0 22.1 407
13:22:48 15 1003 201 3 NO 0 21.8 406
13:25:49 15 1002 201 5 NO 0 21.3 404
13:28:47 15 1002 200 8 N 0 21.9 404
13:31:47 15 1002 203 2 NO 0 22.2 407
13:34:45 15 1002 204 4 O 0 20.8 404
13:37:50 15 1002 205 4 SO 0 21.1 407
13:40:48 15 1002 205 9 SW 0 21.7 404
13:43:46 15 1002 233 5 N 0 21.8 404
13:46:48 15 1002 234 5 SO 0 20.6 407
13:49:48 15 1002 235 10 O 0 21.3 407
13:52:49 15 1002 235 0 S 0 21.3 404
13:55:46 15 1002 240 3 O 0 21.4 406
13:58:48 15 1002 242 6 O 0 20.8 406
14:01:48 15 1002 243 4 NO 0 22.1 407
14:04:49 16 1002 243 10 O 0 22.3 406
14:07:47 16 1002 243 3 SO 0 22.5 401
14:10:50 15 1002 247 5 NO 0 22.2 408
14:13:47 15 1002 247 4 N 0 22.2 404
14:16:48 15 1002 247 7 O 0 21.9 404
14:19:46 14 1002 247 4 S 0 21.9 407
14:22:47 14 1002 247 4 O 0 22.3 404
14:25:49 15 1002 247 3 S 0 22.8 407
14:28:50 15 1002 247 7 S 0 23.1 406
14:31:47 15 1003 247 5 S 0 23.1 407
14:34:45 15 1002 247 4 O 0 23.2 407
14:37:48 15 1002 247 6 O 0 22.2 407
14:40:49 15 1002 247 7 NW 0 22.4 407
14:43:47 15 1002 247 5 NO 0 22.2 404
14:46:48 15 1002 247 9 SO 0 22.4 404
14:49:47 15 1002 246 5 W 0 22.6 407
14:52:48 15 1002 246 4 O 0 22.3 407
14:55:50 15 1002 246 12 SO 0 21.8 404
14:58:45 15 1002 246 1 0 21.6 408
15:01:52 15 1002 246 5 SO 0 21 404
15:04:47 15 1002 246 2 NO 0 20.9 404
15:07:46 15 1002 244 6 O 0 21.2 401
15:10:48 15 1002 239 4 NO 0 21.7 405
15:13:49 15 1002 231 3 SO 0 20.8 404
15:16:48 15 1002 221 12 SW 0 20.7 407
15:19:49 15 1002 220 9 SO 0 20.8 407
15:22:49 14 1002 218 8 SO 0 20.9 407
15:25:49 14 1002 216 4 SW 0 21.1 406
15:28:49 14 1002 214 7 SO 0 21.5 406
15:31:49 14 1002 212 3 NW 0 21.8 407
15:34:47 14 1002 245 14 O 0 21.9 407
15:37:49 14 1002 166 2 SW 0 21.8 403
15:40:47 14 1002 195 5 N 0 21.7 405
15:43:48 14 1002 191 4 N 0 22 404
15:46:48 14 1002 187 8 SO 0 22.9 404
15:49:48 14 1002 182 3 O 0 23.5 407
15:52:49 14 1002 186 5 N 0 23.7 407
15:55:48 14 1003 179 5 NO 0 23.7 407
15:58:51 14 1002 173 12 SO 0 23.8 405
16:01:49 14 1002 173 8 O 0 23.8 404
16:04:49 14 1002 178 8 NW 0 24 401
16:07:50 14 1002 178 5 SO 0 24.1 407
16:10:48 13 1002 174 3 SW 0 24.1 407
16:13:48 13 1002 173 3 SO 0 24.2 404
16:16:48 14 1002 172 2 W 0 24.9 407
16:19:48 14 1002 172 9 SO 0 24.6 407
16:22:46 14 1002 170 3 S 0 24.1 404
16:25:48 14 1002 233 7 NO 0 24.3 405
16:28:49 14 1002 239 1 SO 0 24.5 410
16:31:49 14 1002 233 9 S 0 24.3 405
16:34:48 14 1002 226 2 SO 0 24.2 404
16:37:49 14 1002 230 6 O 0 24.5 406
16:40:49 14 1002 235 5 S 0 24.3 408
16:43:47 13 1002 229 4 O 0 24.5 404
16:46:48 13 1002 232 6 N 0 24.5 401
16:49:48 13 1002 221 1 O 0 24.9 419
16:52:47 13 1002 236 3 O 0 25.1 439
16:55:49 13 1002 232 8 O 0 25.3 439
16:58:47 13 1002 226 4 S 0 25 425
17:01:48 12 1002 231 5 N 0 25.3 416
17:04:48 12 1002 229 7 NO 0 25.7 410
17:07:48 12 1002 225 5 SO 0 25.6 404
17:10:48 12 1002 210 2 O 0 26.2 407
17:13:46 11 1002 211 3 S 0 26.8 409
17:16:47 11 1002 214 6 NO 0 27 413
17:19:47 11 1002 213 5 N 0 26.8 407
17:22:48 11 1002 219 3 NW 0 27 406
17:25:51 11 1002 206 13 NW 0 27.1 404
17:28:48 11 1002 199 1 O 0 27 404
17:31:47 11 1002 197 5 W 0 27 418
17:34:45 10 1002 194 4 N 0 27.1 418
17:37:49 10 1002 192 4 S 0 27.9 413
17:40:49 10 1002 190 5 SO 0 28 407
17:43:48 10 1002 187 7 N 0 27.6 416
17:46:47 10 1002 184 6 N 0 27.4 419
17:49:48 10 1002 181 3 SO 0 27.4 424
17:52:44 10 1002 177 7 O 0 27.5 416
17:55:46 10 1002 171 2 N 0 27.3 413
17:58:49 10 1002 163 5 SO 0 27 410
18:01:50 10 1002 157 6 SO 0 27 424
18:04:46 9 1002 151 4 O 0 27.2 428
18:07:49 9 1002 143 4 NO 0 27.2 433
18:10:39 9 1002 133 1 S 0 34.3 427
18:13:47 9 1002 123 3 NO 0 27 433
18:16:45 9 1002 111 4 S 0 27 428
18:19:48 9 1002 98 5 SO 0 27.2 433
18:22:47 9 1002 84 6 O 0 27.5 428
18:25:48 9 1002 69 4 SO 0 27.5 427
18:28:45 9 1002 53 2 0 27.6 423
18:31:47 8 1002 38 5 O 0 28 433
18:34:46 8 1003 26 1 S 0 27.9 430
18:37:49 8 1002 17 3 S 0 28.3 428
18:40:46 8 1003 10 5 O 0 28.4 425
18:43:45 8 1003 6 1 S 0 28.7 419
18:46:48 8 1002 4 2 W 0 29.2 424
18:49:49 8 1002 0 0 SW 0 28.9 427
18:52:46 8 1003 0 2 NW 0 29.4 430
18:55:45 7 1003 0 0 N 0 29.7 427
18:58:46 7 1002 0 1 O 0 30.2 422
19:01:45 7 1003 0 1 N 0 31.1 418
19:04:45 7 1003 0 0 N 0 31.6 413
19:07:44 7 1003 0 1 O 0 31.7 418
19:10:46 7 1002 0 0 NO 0 31.7 421
19:13:46 7 1003 0 2 O 0 31.8 418
19:16:44 7 1002 0 3 O 0 32.1 421
19:19:46 7 1003 0 1 N 0 32.3 418
19:22:47 7 1003 0 3 NW 0 32.3 421
19:25:47 7 1003 0 0 NO 0 32.6 430
19:28:46 7 1003 0 3 S 0 32.6 436
19:31:48 7 1003 12 6 NO 0 32.4 430
19:34:48 7 1003 0 1 SW 0 32.5 401
19:37:43 7 1002 0 2 O 0 32.1 404
19:40:45 7 1003 0 6 N 0 32 407
19:43:47 7 1002 0 4 S 0 31.9 439
19:46:44 7 1003 0 4 O 0 31.7 445
19:49:46 7 1002 0 2 SO 0 31.1 448
19:52:47 7 1003 0 2 SO 0 31.1 451
19:55:45 7 1003 0 5 O 0 31 458
19:58:46 7 1003 0 2 S 0 30.9 456
20:01:47 7 1002 0 8 NO 0 31.1 457
20:04:45 7 1002 0 7 N 0 31 457
20:07:48 7 1002 0 6 NW 0 30.8 468
20:10:45 7 1003 0 2 N 0 30.6 477
20:13:46 7 1003 0 6 NO 0 30.7 483
20:16:46 7 1002 0 11 NO 0 30.6 486
20:19:47 8 1002 0 1 SO 0 30.4 492
20:22:45 7 1003 0 2 SO 0 30.4 495
20:25:47 7 1003 0 1 SO 0 30.4 498
20:28:45 7 1002 0 7 O 0 30.6 510
20:31:45 7 1003 0 4 NO 0 30.3 521
20:34:47 8 1002 0 4 NW 0 30 521
20:37:46 8 1003 0 3 NO 0 29.8 521
20:40:48 8 1002 0 5 SO 0 29.8 524
20:43:47 7 1002 0 5 SO 0 29.8 530
20:46:48 7 1003 0 2 NO 0 30 536
20:49:49 7 1002 0 12 SO 0 29.9 539
20:52:47 7 1002 0 3 N 0 29.9 539
20:55:45 7 1002 0 6 S 0 29.8 538
20:58:47 7 1002 0 5 SO 0 29.7 544
21:01:45 7 1002 0 3 NO 0 29.6 556
21:04:46 7 1002 0 3 N 0 29.7 557
21:07:48 7 1002 0 2 NO 0 30 557
21:10:47 7 1002 0 1 O 0 30.3 565
21:13:45 7 1002 0 5 SO 0 30.4 577
21:16:48 7 1003 0 3 SO 0 30.6 583
21:19:47 7 1002 0 4 NW 0 30.7 600
21:22:46 7 1003 0 4 S 0 31.2 606
21:25:47 7 1002 0 4 O 0 31.5 606
21:28:45 7 1003 0 4 S 0 31.6 609
21:31:48 7 1003 0 3 W 0 31.6 606
21:34:47 7 1002 0 8 W 0 31.6 604
21:37:46 7 1002 0 5 O 0 31.6 609
21:40:45 7 1002 0 3 NO 0 31.7 615
21:43:46 7 1002 0 5 O 0 31.8 615
21:46:46 7 1002 0 2 W 0 31.9 621
21:49:48 7 1003 0 6 S 0 31.9 615
21:52:46 7 1002 0 0 SO 0 32.1 630
21:55:49 6 1002 0 3 SO 0 32.4 632
21:58:48 6 1003 0 3 N 0 32.7 627
22:01:48 6 1002 0 1 O 0 32.7 630
22:04:47 6 1002 0 3 N 0 32.7 632
22:07:46 6 1002 0 6 O 0 33.3 624
22:10:48 6 1003 0 0 SO 0 33.1 630
22:13:46 6 1003 0 4 W 0 33.3 647
22:16:48 6 1002 0 0 SW 0 33.5 644
22:19:49 6 1003 0 2 N 0 33.5 641
22:22:47 6 1003 0 2 NW 0 33.8 645
22:25:46 6 1002 0 1 NW 0 34.1 647
22:28:48 6 1003 0 2 NW 0 34.3 653
22:31:46 6 1003 0 2 N 0 34.5 644
22:34:49 6 1003 0 0 NO 0 34.6 650
22:37:47 6 1004 0 3 SO 0 34.6 656
22:40:47 5 1003 0 0 SW 0 34.5 659
22:43:46 5 1003 0 0 SO 0 34.5 661
22:46:47 5 1004 0 1 SO 0 34.7 665
22:49:48 5 1003 0 0 NW 0 35 670
22:52:45 5 1004 0 0 SO 0 35.1 670
22:55:47 5 1004 0 0 O 0 35.4 677
22:58:49 4 1003 0 0 NW 0 35.6 682
23:01:47 4 1003 0 0 SO 0 35.6 694
23:04:49 4 1004 0 0 SO 0 36.1 695
23:07:49 4 1004 0 0 N 0 36.6 696
23:10:46 4 1003 0 0 S 0 37.4 697
23:13:48 4 1004 0 0 SO 0 37.9 689
23:16:47 4 1004 0 2 N 0 37.8 698
23:19:47 4 1004 0 1 NW 0 38.1 697
23:22:46 4 1003 0 0 N 0 38.2 702
23:25:47 4 1003 0 1 NO 0 39 708
23:28:45 4 1003 0 1 0 39.4 715
23:31:46 4 1003 0 1 N 0 39.6 718
23:34:47 4 1004 0 1 NO 0 39.2 718
23:37:48 4 1003 0 0 SO 0 39.3 711
23:40:48 4 1004 0 1 O 0 39.6 715
23:43:46 4 1003 0 0 O 0 39.5 709
23:46:46 4 1003 0 0 O 0 39.3 715
23:49:46 3 1003 0 0 O 0 39.5 718
23:52:45 3 1004 0 0 O 0 39.8 720
23:55:48 3 1004 0 0 O 0 40.5 723
23:58:47 2 1003 0 0 O 0 40.6 762

Letzte Änderung : 04-Jan-2022
Copyright Jens Köhler, Wolfsburg, Obere Dorfstraße 10d